sat.trackr.live / text

‹ back to catalog

STARLINK-30393

NORAD 57866 · 2023-144C

PAYLOAD ACTIVE UNKNOWN

§ Identity

Operator
Country
US
Launch date
2023-09-16
Launch site
AFETR
Launch vehicle
Mass (kg)
RCS (m²)

Purposes: comms

External: N2YO · Heavens-Above · Gunter

§ Orbital elements

Epoch: 2026-05-25T05:07:09.086304Z

Period
94.27 min
Inclination
42.9986°
Eccentricity
0.0001413
Mean motion
15.27577459 rev/d
Perigee alt
482.1 km
Apogee alt
484.0 km
Semi-major
6,861.2 km
B*
3.4818e-5
RAAN
212.7858°
Arg perigee
278.0680°
Mean anomaly
82.0011°
Rev number
14,930

§ Raw data

STARLINK-303931 57866U 23144C   26145.21329961  .00000696  00000+0  34818-4 0  99952 57866  42.9986 212.7858 0001413 278.0680  82.0011 15.27577459149306

JSON: /api/v1/satellites/57866 · /tle

For live sub-satellite position, see the globe view (requires WebGL).

§ Visibility from observer

Set your observer location to see the next 7 days of passes ≥ 10°. The values pass through the URL so the page stays shareable.

No JS? Fill the form by hand. The geolocation button needs JavaScript.